Weather History for Columbus, GA

Change the Weather History Date:

Thursday, May 23, 2013

  Actual Average Record
Temperature  
Mean Temperature 80 °F 75 °F  
Max Temperature 89 °F 86 °F 97 °F (1996)
Min Temperature 70 °F 64 °F 49 °F (1954)
Degree Days  
Heating Degree Days 0 0  
Month to date heating degree days 27 6  
Since 1 July heating degree days 1800 2118  
Cooling Degree Days 15 10  
Month to date cooling degree days 141 165  
Year to date cooling degree days 267 269  
Growing Degree Days 30 (Base 50)    
Moisture  
Dew Point 61 °F    
Average Humidity 55    
Maximum Humidity 73    
Minimum Humidity 36    
Precipitation  
Precipitation 0.00 in 0.10 in 3.09 in (1974)
Month to date precipitation 2.86 2.34  
Year to date precipitation 25.61 19.64  
Sea Level Pressure  
Sea Level Pressure 29.96 in    
Wind  
Wind Speed 8 mph (NW)    
Max Wind Speed 17 mph    
Max Gust Speed 23 mph    
Visibility 10 miles    
Events      
T = Trace of Precipitation, MM = Missing Value Source: NWS Daily Summary

Daily Weather History Graph

Daily Weather History Graph

Search for Another Location

Airport:

Trip Planner

Search our weather history database for the weather conditions in past years. The results will help you decide how hot, cold, wet, or windy it might be!

Date:

Astronomy

May. 23, 2013 Rise Set
Actual Time 6:36 AM EDT 8:36 PM EDT
Civil Twilight 6:09 AM EDT 9:04 PM EDT
Nautical Twilight 5:35 AM EDT 9:38 PM EDT
Astronomical Twilight 4:59 AM EDT 10:13 PM EDT
Moon 7:12 PM EDT (5/23) 5:15 AM EDT (5/23)
Length of Visible Light 14h 55m
Length of Day
14h 00m
Waxing Gibbous, 97% of the Moon is Illuminated
May 23
Waxing Gibbous
May 25
Full
May 31
Last Quarter
Jun 8
New
Jun 16
First Quarter

Hourly Weather History & Observations

Time (EDT) Temp. Heat Index Dew Point Humidity Pressure Visibility Wind Dir Wind Speed Gust Speed Precip Events Conditions
12:51 AM 77.0 °F - 64.9 °F 66% 29.92 in 10.0 mi WNW 6.9 mph - N/A   Mostly Cloudy
1:51 AM 77.0 °F - 64.0 °F 64% 29.93 in 10.0 mi WNW 8.1 mph - N/A   Overcast
2:51 AM 75.0 °F - 63.0 °F 66% 29.93 in 10.0 mi West 6.9 mph - N/A   Clear
3:51 AM 73.9 °F - 63.0 °F 68% 29.93 in 10.0 mi NW 5.8 mph - N/A   Clear
4:51 AM 73.0 °F - 62.1 °F 68% 29.94 in 10.0 mi Calm Calm - N/A   Clear
5:51 AM 72.0 °F - 62.1 °F 71% 29.95 in 10.0 mi Calm Calm - N/A   Clear
6:51 AM 71.1 °F - 62.1 °F 73% 29.97 in 10.0 mi WNW 3.5 mph - N/A   Clear
7:51 AM 73.0 °F - 63.0 °F 71% 29.99 in 10.0 mi NNW 6.9 mph - N/A   Partly Cloudy
8:51 AM 75.0 °F - 64.9 °F 71% 29.99 in 10.0 mi NNW 9.2 mph - N/A   Clear
9:51 AM 78.1 °F - 64.0 °F 62% 29.99 in 10.0 mi NNW 6.9 mph - N/A   Clear
10:51 AM 80.1 °F 80.6 °F 57.9 °F 47% 29.99 in 10.0 mi North 9.2 mph 16.1 mph N/A   Clear
11:51 AM 82.9 °F 82.8 °F 59.0 °F 44% 29.99 in 10.0 mi WNW 8.1 mph - N/A   Scattered Clouds
12:51 PM 84.0 °F 83.0 °F 55.9 °F 38% 29.98 in 10.0 mi NNW 13.8 mph - N/A   Partly Cloudy
1:51 PM 86.0 °F 85.0 °F 57.9 °F 38% 29.97 in 10.0 mi WNW 12.7 mph - N/A   Clear
2:51 PM 87.1 °F 86.5 °F 59.0 °F 39% 29.97 in 10.0 mi WNW 10.4 mph - N/A   Clear
3:51 PM 87.1 °F 86.1 °F 57.9 °F 37% 29.96 in 10.0 mi NNW 9.2 mph 19.6 mph N/A   Partly Cloudy
4:51 PM 89.1 °F 88.2 °F 59.0 °F 36% 29.95 in 10.0 mi NW 12.7 mph - N/A   Scattered Clouds
5:51 PM 88.0 °F 87.1 °F 59.0 °F 37% 29.94 in 10.0 mi WNW 8.1 mph - N/A   Clear
6:51 PM 87.1 °F 86.1 °F 57.9 °F 37% 29.93 in 10.0 mi WNW 9.2 mph - N/A   Clear
7:51 PM 84.9 °F 84.4 °F 59.0 °F 41% 29.94 in 10.0 mi WNW 8.1 mph - N/A   Partly Cloudy
8:51 PM 82.9 °F 83.2 °F 60.1 °F 46% 29.95 in 10.0 mi WNW 6.9 mph - N/A   Clear
9:51 PM 80.1 °F 80.9 °F 60.1 °F 50% 29.96 in 10.0 mi WNW 4.6 mph - N/A   Clear
10:51 PM 79.0 °F - 59.0 °F 50% 29.97 in 10.0 mi NNW 5.8 mph - N/A   Clear
11:51 PM 77.0 °F - 59.0 °F 54% 29.98 in 10.0 mi NW 6.9 mph - N/A   Clear